Location: Ottawa
(45.4170°N, 75.7000°W)
Time: 21:49:24
(UTC-04:00)

ISS - Pass Details

Date: 24 May 2021
Orbit: 417 x 422 km, 51.6° (Epoch: 13 June)

Event Time Altitude Azimuth Distance (km) Brightness Sun altitude
Rises 21:35:09 0° 290° (WNW) 2,365 1.5 -9.0°
Reaches altitude 10° 21:37:27 10° 303° (WNW) 1,502 0.6 -9.3°
Maximum altitude 21:40:24 27° 4° (N) 834 -1.8 -9.7°
Drops below altitude 10° 21:43:21 10° 65° (ENE) 1,503 -1.2 -10.0°
Enters shadow 21:45:19 - 77° (ENE) 2,234 -0.4 -10.3°
